Regional Weather Roundup
Issued by NWS

Home | Current Version | Previous Version | Text Only | Print | Product List | Glossary On
Versions: 1 2 3 4 5 6 7 8 9 10 11 12 13 14 15 16 17 18 19 20 21 22 23 24 25 26 27 28 29 30 31 32 33 34 35 36 37 38 39 40 41 42 43 44 45 46 47 48 49 50
000
ASUS43 KIND 011109
RWRIN

WEATHER ROUNDUP FOR INDIANA
NATIONAL WEATHER SERVICE INDIANAPOLIS IN
700 AM EDT SAT AUG 01 2015

NOTE: "FAIR" INDICATES FEW OR NO CLOUDS BELOW 12,000 FEET WITH NO
SIGNIFICANT WEATHER AND/OR OBSTRUCTIONS TO VISIBILITY.

* - STATION DOES NOT REPORT WEATHER SUCH AS PRECIPITATION OR FOG.

+ - STATION NOT QUALITY CONTROLLED BY THE NATIONAL WEATHER SERVICE.
    USE DATA WITH CAUTION...ESPECIALLY DEWPOINT AND RELATIVE
    HUMIDITY OBSERVATIONS.

INZ001>003-010>013-019-020-011200-
NORTHWEST INDIANA

CITY           SKY/WX    TMP DP  RH WIND       PRES   REMARKS
GARY /AIRPORT/ CLEAR     61  55  82 W8        29.99S
KNOX *+        CLEAR     55  54  94 CALM      29.98S
LA PORTE +     CLEAR     62  59  93 W5        29.99R
MICHIGAN CITY+ CLEAR     59  59 100 CALM      29.99R
MONTICELLO +   CLEAR     59  56  92 CALM      30.00R
RENSSELAER +   CLEAR     61  59  94 W6        30.01R
VALPARAISO     CLEAR     61  53  75 W6        30.00R

$$

LMZ046-743>745-011200-
SOUTHERN LAKE MICHIGAN

STATION/POSITION TIME  TEMP    WIND        PRES    WAVE
                       AIR SEA DIR/SP/G            HT
                 (UTC) (F)     (DEG/KT/KT) (MB)    (FT)
BURNS HARBOR     1000   71     250/  7/ 12 1015.6S
MICHIGAN CITY    1000   72     260/ 15/ 17   N/A
5NW MICH CITY    1100   73 74  300/ 12/ 16   N/A     3

$$

INZ004-005-014>016-021>024-011200-
NORTH CENTRAL INDIANA

CITY           SKY/WX    TMP DP  RH WIND       PRES   REMARKS
GOSHEN         CLEAR     59  55  87 SW3       29.97S
LOGANSPORT +   CLEAR     54  50  87 W3        30.01R
PERU/GRISSOM   CLEAR     58  55  89 W3        29.99R
ROCHESTER +    CLEAR     63  55  77 W3        30.00R
SOUTH BEND     CLEAR     60  56  86 CALM      29.99R
WARSAW +       CLEAR     59  55  88 W3        29.98R

$$

INZ006>009-017-018-025>027-011200-
NORTHEAST INDIANA

CITY           SKY/WX    TMP DP  RH WIND       PRES   REMARKS
ANGOLA *+      CLEAR     55  54  94 CALM      29.96S
AUBURN +       CLEAR     59  54  82 W3        29.97S
FORT WAYNE     PTCLDY    60  56  86 W7        29.98R
HUNTINGTON +   CLEAR     62  55  80 W6        29.98R

$$

INZ028-029-035-036-043>045-051>053-011200-
WEST CENTRAL INDIANA

CITY           SKY/WX    TMP DP  RH WIND       PRES   REMARKS
CRAWFORDSVL +  CLEAR     55  55 100 CALM        N/A
GREENCASTLE +  CLEAR     63  55  77 CALM      30.03R
LAFAYETTE      CLEAR     58  56  93 CALM      30.01R
TERRE HAUTE    CLEAR     59  56  89 CALM      30.02S

$$

INZ030>032-037>040-046>048-054>057-064-065-011200-
CENTRAL INDIANA

CITY           SKY/WX    TMP DP  RH WIND       PRES   REMARKS
COLUMBUS       PTCLDY    61  57  88 CALM      30.00
FISHERS *+     CLEAR     59  59 100 CALM      30.00
FRANKFORT +    CLEAR    N/A N/A N/A CALM      30.03R
GREENWOOD *+   CLEAR     61  57  88 W5        30.01R
INDIANAPOLIS   PTCLDY    63  58  83 NW7       29.99R
-EAGLE CREEK   CLEAR     66  59  78 NW9       30.00R
KOKOMO *+      CLEAR     59  54  82 W5        30.00S
MARION +       CLEAR     55  54  96 W5        30.00R
MT COMFORT *+  CLEAR     61 N/A N/A CALM      30.01R
SHELBYVILLE    CLEAR     63  58  83 W3        29.99R
ZIONSVILLE +   CLEAR     61  58  88 NW3       30.02R

$$

INZ033-034-041-042-049-050-058-059-011200-
EAST CENTRAL INDIANA

CITY           SKY/WX    TMP DP  RH WIND       PRES   REMARKS
MUNCIE         CLEAR     59  57  93 W3        29.99S

$$

INZ060-061-067>069-081>083-085>088-011200-
SOUTHWEST INDIANA

CITY           SKY/WX    TMP DP  RH WIND       PRES   REMARKS
EVANSVILLE     CLEAR     73  67  81 NW6       30.02R
HUNTINGBURG *+ CLEAR     68  64  88 CALM      30.01R
WASHINGTON +   CLEAR     65  61  86 NW5       30.01R

$$

INZ062-063-066-070>080-084-089>092-011200-
SOUTH CENTRAL AND SOUTHEAST INDIANA

CITY           SKY/WX    TMP DP  RH WIND       PRES   REMARKS
BLOOMINGTON    CLEAR     63  60  90 N3        30.02R
MADISON *+     CLEAR     61  59  94 CALM      30.02S
NORTH VERNON + CLEAR     63  63 100 CALM      30.00S
SEYMOUR +      CLEAR     63  61  94 CALM      30.00R

$$




USA.gov is the U.S. government's official web portal to all federal, state and local government web resources and services.